Terug naar catalogus

SHIJIAN 6 04A

SJ-6 04A

ActiefWetenschapSSO
NORAD 37179·PAYLOAD·🇨🇳 China

Gelanceerd Oct 6, 2010 vanaf Taiyuan Satellite Launch Center

Loading…

Volgende Passages (komende 24 uur)

TLE

VersSource: Space-Track

Epoch: Sep 14, 2026, 12:22 UTC

1 37179U 10051A   26257.51575912  .00003783  00000-0  18438-3 0  9999
2 37179  97.8247 283.8300 0016392 278.3942  81.5433 15.18885778870508

Volg SHIJIAN 6 04A in realtime met AllMySat

Download on the App Store